Wetbulb
53.36 53.40 53.39 53.21 53.76 53.67 54.18 54.33 55.25 55.73 55.43 55.38 55.61 56.43 56.63 56.76 56.04 50.91 45.68 50.97 54.44 59.97 61.60 55.88 54.73 54.59 54.69 50.80 51.78 47.83 39.68 38.92 41.61 44.24 46.09 49.83 50.60 57.97 59.57 63.19 66.73 68.97 67.43 68.19 68.23
53.11 53.27 53.15 52.91 53.22 53.41 53.07 53.11 53.45 54.16 55.12 55.46 55.06 56.00 56.54 56.56 50.39 46.69 53.60 58.26 60.61 62.38 55.38 51.95 50.42 52.22 48.15 48.64 48.60 44.15 40.10 40.82 44.92 47.53 47.38 49.94 50.42 52.32 58.20 61.78 64.39 65.18 67.30 68.64 67.27
53.15 53.26 53.35 53.19 53.27 53.27 52.90 52.84 52.83 52.85 53.29 54.36 55.37 55.44 55.41 54.40 45.14 46.48 61.44 62.05 61.52 60.20 56.31 53.20 52.38 51.12 46.41 48.55 47.48 45.16 41.53 44.87 46.64 48.53 49.68 50.14 50.95 52.98 52.27 56.97 62.00 62.66 64.00 63.77 65.98
52.95 52.87 52.75 52.82 52.93 52.81 52.95 52.93 52.77 52.90 52.46 52.67 53.39 54.84 55.09 49.35 34.78 54.00 60.02 60.48 61.24 58.74 54.46 51.20 48.93 44.72 43.67 44.00 47.61 42.88 46.90 47.74 47.69 49.10 49.05 48.94 52.04 51.82 52.83 56.84 66.02 66.19 65.92 63.79 63.03
52.70 52.89 53.18 53.39 53.56 53.57 53.40 53.25 53.15 52.77 52.87 52.81 52.76 53.60 51.12 43.17 41.64 51.89 58.20 58.35 56.32 57.09 51.77 48.72 45.94 45.25 42.80 45.94 46.27 45.36 46.51 48.00 49.63 49.57 49.14 50.16 49.67 50.51 51.19 56.35 65.90 66.87 65.84 64.17 62.98
52.09 52.52 52.56 52.78 52.73 53.43 53.92 53.77 53.33 53.19 53.17 52.99 52.94 53.19 47.11 38.13 49.98 51.63 51.55 51.92 52.06 52.97 51.92 49.20 47.84 49.20 46.16 46.58 45.46 45.95 47.07 47.27 48.13 48.09 49.12 48.04 49.05 50.26 52.05 57.32 59.62 66.31 66.23 66.21 66.09
52.45 52.57 52.32 52.64 53.11 53.50 54.01 54.05 53.89 53.50 53.37 53.38 52.77 50.02 43.82 41.37 50.82 51.74 51.34 49.63 51.22 51.65 52.61 53.46 53.59 50.59 48.78 45.40 49.17 48.59 44.09 45.39 46.90 47.71 47.12 48.95 46.36 48.23 52.62 58.55 64.69 65.68 64.92 64.46 65.60
52.22 52.86 52.79 53.19 53.42 53.67 53.67 54.14 54.01 53.83 53.35 53.09 52.84 48.05 39.49 49.15 50.42 49.21 49.79 48.55 51.42 52.25 51.75 56.15 55.67 51.53 49.61 50.04 48.62 44.67 42.23 37.70 44.30 47.30 48.37 46.45 41.96 49.07 52.20 56.51 61.47 65.10 64.81 65.36 63.53
52.78 52.65 52.86 52.86 53.41 53.48 53.76 53.35 53.60 53.81 53.27 52.82 48.00 44.49 37.05 52.07 48.76 49.70 49.54 47.49 50.88 52.30 52.48 56.09 54.98 50.67 49.18 44.25 40.75 41.78 36.21 38.07 41.19 47.37 46.77 45.97 43.17 48.86 51.71 54.14 57.31 60.15 61.95 62.86 61.03
52.83 52.40 52.53 52.98 53.54 53.95 53.50 53.04 53.30 52.08 51.73 51.41 49.12 40.88 43.47 44.12 49.17 51.56 51.68 50.35 48.73 51.15 50.82 50.30 49.71 44.83 45.88 41.85 34.97 37.56 37.60 39.01 39.84 44.55 46.21 44.26 43.99 48.23 51.22 52.74 54.58 58.15 58.67 60.50 60.63
52.63 52.49 52.45 53.11 53.66 53.66 51.40 48.13 43.43 43.26 44.93 42.00 43.04 42.08 44.93 49.36 53.28 51.33 52.21 48.85 48.37 47.23 40.97 45.75 42.44 38.91 42.61 44.58 45.13 43.23 40.71 39.26 42.13 46.09 44.06 43.74 44.32 46.93 50.34 50.78 52.43 55.80 59.11 58.27 62.22
52.09 52.49 52.77 52.92 53.21 53.25 49.83 44.26 45.05 44.78 38.66 47.32 46.46 47.26 48.68 50.49 45.62 48.58 53.07 43.47 42.53 37.69 43.15 42.17 38.87 44.35 46.58 46.53 45.24 43.76 40.57 39.43 43.04 46.31 43.74 44.07 44.04 47.07 49.64 49.84 51.84 58.32 58.85 60.35 61.59
51.64 51.93 52.51 52.61 52.54 50.48 47.75 48.10 51.10 47.98 38.21 44.52 48.94 47.93 48.53 48.73 44.20 45.10 49.21 45.94 41.98 39.32 39.90 39.80 42.31 46.81 45.62 44.62 43.39 42.02 39.56 40.16 40.61 44.38 46.01 44.07 42.36 44.89 49.34 50.76 57.44 58.74 58.51 58.77 59.83
51.26 51.68 52.07 51.94 49.80 51.10 48.38 51.69 51.52 49.73 35.88 41.12 43.90 47.37 48.89 49.12 43.98 49.81 50.86 48.10 43.69 39.76 41.77 42.02 45.69 44.60 43.71 42.82 43.74 37.83 44.18 43.57 43.25 41.51 36.41 44.32 35.64 42.68 46.93 48.40 55.33 57.35 57.74 58.93 59.72
51.14 51.67 51.70 50.88 48.46 49.00 50.39 52.88 51.13 46.24 24.44 42.24 43.73 51.18 49.66 44.97 45.89 46.57 51.91 48.90 41.84 42.38 43.14 40.66 41.16 41.46 41.34 42.69 45.07 40.96 45.40 43.23 43.46 39.48 37.53 40.19 37.18 41.54 46.58 45.67 50.45 54.04 57.20 56.31 58.56
51.11 51.36 51.37 51.79 49.65 52.86 55.46 53.67 47.76 36.28 26.28 38.54 45.27 44.58 43.60 44.74 43.71 45.95 46.44 49.15 48.48 44.16 44.21 41.82 45.89 43.74 42.73 46.11 46.13 46.85 43.09 42.72 41.34 37.91 33.33 38.78 39.65 40.34 42.80 45.86 51.33 54.03 56.00 56.52 57.67
50.99 51.02 49.56 51.67 48.41 54.33 55.69 49.59 35.71 30.35 41.41 36.29 39.72 43.64 42.95 40.73 41.98 42.74 41.42 40.64 38.03 33.68 34.10 40.22 40.78 44.15 46.43 41.57 44.51 44.21 40.21 30.98 28.65 30.94 30.50 40.27 38.10 40.95 47.20 49.22 53.83 53.66 54.30 55.41 56.79
49.84 49.68 51.36 53.39 54.61 55.09 53.11 43.91 30.65 36.65 36.91 42.79 43.16 42.97 40.07 41.68 41.14 41.36 40.24 37.97 42.70 40.56 37.57 34.47 32.62 41.78 45.51 42.74 38.98 41.37 38.43 31.99 27.79 28.85 31.80 41.22 37.27 40.48 49.34 50.88 55.41 56.43 55.33 56.09 56.58
48.96 52.05 52.61 53.37 55.09 54.38 47.11 36.17 35.95 37.80 41.50 40.84 41.67 38.73 40.04 42.00 41.59 40.11 39.25 38.79 42.53 43.04 35.94 35.66 36.45 45.56 45.42 45.36 44.86 39.37 37.71 42.98 37.71 37.26 34.96 38.31 41.10 46.66 49.06 50.01 53.84 54.83 55.19 55.28 56.54
46.17 49.18 51.40 55.97 56.71 51.84 42.08 37.27 39.69 44.03 44.38 43.17 37.93 41.06 38.55 40.14 38.64 39.04 39.61 44.82 44.28 46.86 44.63 41.87 35.44 42.65 44.28 45.24 45.00 42.13 45.58 37.00 37.70 29.76 29.92 35.42 38.00 38.81 43.87 47.48 51.93 54.23 53.49 55.39 56.56
47.95 47.52 52.64 56.10 55.78 46.83 37.46 39.30 42.17 46.27 46.68 42.44 40.87 40.37 42.17 40.61 41.34 39.57 41.09 45.32 47.45 45.88 45.80 42.10 39.08 39.03 42.87 40.41 39.14 38.58 38.84 38.77 40.12 37.13 33.07 32.63 35.95 45.69 45.52 47.36 48.41 51.94 53.97 56.16 56.85
46.05 42.29 53.30 54.66 43.26 44.39 37.93 43.09 44.10 44.63 47.34 45.05 45.03 43.54 43.34 43.91 42.67 41.27 40.94 45.12 49.50 47.88 42.93 42.81 38.61 33.80 38.00 44.03 45.08 41.77 39.70 41.30 33.65 36.30 38.70 36.98 36.28 49.58 47.27 49.06 49.97 51.04 54.15 55.72 57.61
42.70 46.13 53.46 49.80 37.06 37.64 43.44 44.82 45.32 43.79 43.17 43.15 42.07 45.90 46.77 43.12 41.40 43.86 44.58 48.64 49.04 47.71 43.84 43.80 37.73 29.75 32.93 37.83 41.38 38.07 40.58 41.76 40.51 38.59 35.51 33.32 37.24 50.05 50.44 50.88 50.09 50.50 52.01 54.81 55.46
44.48 39.74 44.20 44.28 43.89 40.57 39.76 41.49 40.74 46.17 44.38 45.29 44.59 45.99 43.25 42.54 45.76 44.09 44.09 47.90 48.65 48.41 53.29 48.39 40.10 34.85 31.15 34.42 38.48 37.26 40.34 43.06 40.48 33.94 36.51 37.85 40.87 45.32 47.69 47.73 49.66 54.47 56.07 56.56 57.86
44.55 40.21 41.90 35.10 38.24 39.71 41.60 42.51 39.33 39.22 43.34 45.35 42.73 42.25 41.19 40.65 42.37 41.41 44.89 46.40 48.07 51.60 46.43 44.98 39.05 43.06 39.52 41.34 41.52 40.71 40.77 41.96 42.04 41.95 37.93 41.92 41.94 45.76 47.72 50.64 54.87 55.55 55.07 54.65 54.41
40.24 38.30 40.53 38.97 42.19 40.54 40.45 38.49 38.56 40.08 41.21 40.41 40.38 42.48 41.96 41.72 42.91 40.52 43.26 44.28 44.44 47.37 45.08 47.11 39.96 42.74 41.63 41.64 41.49 40.24 41.81 43.02 43.47 43.37 43.00 44.46 45.20 50.52 54.56 54.14 53.77 53.67 53.77 53.50 53.33
46.59 44.94 41.09 40.12 39.52 37.58 37.72 39.48 40.17 40.71 44.34 43.92 43.54 42.00 41.04 43.72 44.81 45.85 46.19 46.05 46.13 44.95 44.95 44.52 41.56 39.69 36.43 42.57 41.46 35.55 39.96 41.38 44.00 46.64 45.78 39.27 46.79 52.05 51.22 51.49 50.91 52.07 53.80 52.52 52.25
MSLP
1019.75 1019.34 1018.98 1018.61 1018.18 1017.79 1017.37 1017.05 1016.71 1016.25 1015.95 1015.75 1015.45 1015.11 1014.70 1014.36 1013.90 1013.43 1012.29 1010.95 1010.34 1010.01 1009.95 1010.06 1009.97 1009.34 1008.99 1008.93 1008.67 1008.57 1008.58 1007.00 1005.57 1004.36 1002.69 1001.19 1000.59 999.35 999.21 1000.49 1002.19 1003.21 1004.92 1006.63 1006.59
1019.69 1019.24 1018.81 1018.37 1017.88 1017.53 1017.23 1016.87 1016.53 1016.26 1015.94 1015.51 1015.22 1014.93 1014.63 1014.19 1013.67 1012.08 1009.76 1009.25 1009.32 1009.64 1009.76 1009.64 1009.61 1009.30 1009.05 1008.28 1008.19 1007.85 1006.98 1004.62 1004.85 1004.01 1002.71 1001.23 1000.61 999.89 1000.34 1002.33 1004.00 1005.42 1005.93 1005.40 1007.21
1019.55 1019.04 1018.54 1018.07 1017.67 1017.28 1016.91 1016.61 1016.47 1016.14 1015.87 1015.35 1015.07 1014.74 1014.61 1014.37 1013.02 1009.25 1007.88 1007.70 1008.11 1009.05 1009.49 1009.39 1009.21 1009.21 1008.75 1008.00 1007.58 1006.87 1005.10 1005.29 1003.96 1003.49 1002.73 1001.50 1000.33 1000.38 1000.60 1001.87 1003.74 1005.05 1005.31 1004.81 1004.50
1019.39 1018.85 1018.30 1017.75 1017.23 1016.83 1016.45 1016.13 1015.81 1015.58 1015.33 1015.24 1015.07 1014.75 1014.47 1014.48 1012.59 1007.81 1008.01 1008.04 1007.83 1008.20 1009.13 1009.27 1009.20 1009.19 1008.48 1007.71 1007.03 1006.34 1005.07 1004.59 1004.32 1003.45 1002.76 1001.57 1000.37 1000.43 1000.82 1000.60 1002.17 1003.91 1004.59 1004.37 1004.32
1019.17 1018.59 1017.95 1017.34 1016.69 1016.22 1015.89 1015.51 1015.34 1015.24 1015.01 1014.89 1014.71 1014.57 1014.41 1013.77 1011.63 1009.15 1008.49 1008.32 1008.07 1008.33 1008.52 1008.87 1008.97 1008.94 1008.31 1007.11 1006.45 1005.26 1005.03 1004.57 1004.06 1003.43 1002.50 1001.67 1000.61 1000.30 1000.16 1000.19 1001.41 1003.40 1004.69 1004.81 1003.51
1018.84 1018.25 1017.58 1016.86 1016.32 1015.76 1015.30 1015.04 1014.79 1014.58 1014.53 1014.40 1014.38 1014.37 1014.28 1012.57 1010.46 1009.41 1008.92 1008.55 1007.86 1008.02 1008.19 1008.44 1008.27 1008.13 1007.70 1006.75 1006.04 1004.81 1005.01 1004.46 1003.80 1002.88 1002.33 1002.09 1000.80 1000.57 999.73 999.43 1000.06 1002.17 1003.67 1004.09 1004.42
1018.48 1017.82 1017.10 1016.42 1015.75 1015.08 1014.62 1014.33 1014.22 1014.09 1013.99 1013.98 1014.05 1014.07 1013.55 1010.85 1009.96 1009.22 1008.99 1008.95 1008.33 1008.10 1007.53 1007.63 1007.62 1007.60 1007.00 1006.75 1005.58 1005.18 1005.02 1004.22 1003.17 1002.59 1001.99 1001.79 1001.17 1000.41 1000.06 999.70 1000.47 1001.57 1003.97 1004.90 1005.17
1018.11 1017.37 1016.65 1015.93 1015.07 1014.43 1013.90 1013.73 1013.56 1013.44 1013.37 1013.51 1013.66 1013.77 1012.33 1009.75 1009.40 1009.22 1009.08 1008.62 1008.01 1007.29 1006.95 1006.45 1006.70 1006.93 1006.82 1006.31 1005.48 1005.46 1004.90 1004.27 1002.79 1002.38 1001.77 1001.91 1001.07 999.83 1000.20 1000.05 1000.94 1003.20 1004.12 1007.18 1006.00
1017.75 1016.99 1016.25 1015.37 1014.45 1013.81 1013.32 1013.07 1012.94 1012.78 1012.84 1013.15 1013.33 1013.05 1010.79 1008.36 1008.01 1007.68 1008.40 1008.05 1007.17 1006.49 1005.79 1005.75 1005.95 1006.40 1006.41 1006.53 1006.47 1005.31 1004.81 1003.69 1002.94 1001.63 1001.61 1001.47 1000.89 999.79 1000.15 1000.22 1001.19 1003.30 1004.41 1005.23 1003.81
1017.39 1016.63 1015.82 1014.98 1014.03 1013.36 1012.80 1012.69 1012.49 1012.70 1012.54 1012.66 1012.60 1012.40 1009.71 1008.00 1007.85 1007.22 1007.14 1007.45 1007.08 1006.29 1005.79 1005.56 1005.79 1006.18 1006.17 1006.19 1005.38 1004.46 1004.30 1003.54 1002.70 1001.62 1001.28 1001.22 1000.48 1000.02 1000.21 1000.43 1001.33 1003.24 1004.49 1004.05 1004.46
1017.08 1016.27 1015.42 1014.66 1013.73 1013.31 1012.64 1012.19 1012.67 1012.77 1012.11 1011.19 1010.52 1009.62 1008.33 1007.69 1008.27 1007.18 1006.39 1007.11 1006.96 1006.93 1006.43 1005.85 1006.03 1005.29 1005.08 1004.85 1005.47 1004.81 1004.44 1003.51 1002.38 1001.59 1001.44 1001.26 1000.71 1000.11 1000.14 1000.75 1001.30 1003.35 1004.76 1005.67 1006.85
1016.71 1015.84 1015.06 1014.19 1013.39 1013.05 1012.99 1011.77 1011.35 1011.43 1010.59 1009.43 1009.12 1008.34 1007.58 1007.89 1008.25 1007.42 1006.65 1007.14 1007.13 1007.70 1007.26 1006.64 1005.51 1005.49 1005.19 1005.07 1005.15 1004.57 1004.02 1003.18 1002.28 1001.48 1001.47 1001.32 1000.66 1000.46 1000.27 1001.00 1001.92 1004.10 1005.45 1005.94 1006.75
1016.42 1015.56 1014.66 1013.91 1012.83 1012.29 1011.94 1010.92 1010.49 1010.62 1010.64 1008.98 1008.04 1007.17 1006.39 1007.78 1008.24 1007.79 1007.56 1006.93 1007.28 1007.93 1007.25 1006.74 1005.81 1005.33 1004.83 1004.59 1004.37 1003.82 1003.45 1002.94 1002.24 1001.61 1001.22 1001.33 1001.01 1000.68 1000.49 1001.01 1003.70 1005.19 1005.71 1006.27 1006.45
1016.05 1015.20 1014.47 1013.56 1012.51 1011.41 1010.76 1010.41 1010.66 1010.89 1010.52 1009.24 1007.62 1006.69 1006.74 1006.96 1007.88 1007.97 1007.87 1007.32 1007.47 1007.59 1007.35 1006.91 1005.58 1004.91 1004.31 1003.87 1003.65 1003.49 1002.68 1002.69 1002.36 1001.93 1001.95 1001.11 1001.23 1000.63 1000.84 1001.39 1003.88 1005.64 1006.23 1006.65 1007.25
1015.63 1014.85 1014.01 1014.11 1013.07 1011.57 1010.29 1010.09 1010.72 1011.01 1010.48 1009.27 1007.99 1006.61 1006.70 1007.36 1007.97 1008.16 1008.19 1007.62 1007.31 1007.27 1007.48 1006.06 1005.12 1004.28 1003.65 1003.20 1003.31 1002.69 1002.73 1002.82 1002.80 1002.65 1002.69 1001.61 1002.10 1000.74 1000.61 1001.50 1003.30 1004.74 1005.17 1005.69 1006.09
1015.10 1014.27 1013.83 1012.22 1012.71 1010.43 1009.63 1010.03 1010.58 1011.26 1010.88 1009.62 1008.23 1007.25 1007.45 1007.77 1008.25 1008.40 1008.29 1008.11 1007.35 1006.96 1006.76 1005.70 1004.47 1003.90 1003.59 1003.17 1002.94 1003.07 1003.16 1003.29 1003.34 1003.69 1003.89 1002.78 1001.78 1000.82 1000.92 1001.03 1002.78 1004.18 1004.66 1004.91 1005.80
1014.48 1013.13 1013.39 1012.15 1010.95 1009.42 1009.25 1010.09 1010.74 1011.25 1011.37 1010.53 1009.13 1008.44 1007.78 1007.89 1007.95 1008.28 1008.19 1007.62 1007.00 1006.67 1006.30 1005.29 1004.09 1003.59 1003.47 1003.26 1003.03 1003.25 1003.86 1005.00 1005.21 1005.19 1004.97 1003.47 1002.87 1001.32 1000.28 1000.22 1001.27 1002.96 1004.46 1004.87 1005.46
1014.03 1012.15 1011.01 1010.44 1009.63 1009.25 1009.19 1010.25 1011.31 1012.09 1011.33 1010.64 1009.52 1008.52 1008.10 1007.79 1007.82 1008.06 1007.84 1007.14 1006.38 1006.12 1005.40 1004.10 1003.39 1003.01 1002.69 1002.86 1002.41 1002.62 1004.37 1005.70 1006.13 1005.45 1005.01 1004.21 1002.92 1000.87 999.91 999.67 999.99 1001.29 1002.49 1004.01 1004.99
1013.35 1011.40 1010.49 1008.90 1008.80 1008.73 1009.62 1010.53 1011.93 1012.09 1011.48 1010.59 1009.67 1008.95 1007.42 1007.46 1007.15 1007.15 1007.17 1006.48 1005.37 1004.61 1004.20 1002.85 1001.80 1001.24 1001.11 1001.20 1001.85 1002.55 1003.57 1004.92 1005.97 1005.53 1005.51 1004.05 1002.44 1001.53 1000.32 999.89 1000.56 1000.75 1002.15 1003.07 1003.98
1013.95 1011.99 1009.68 1008.14 1007.85 1008.55 1009.79 1010.91 1011.18 1011.42 1010.95 1010.69 1009.95 1009.03 1008.11 1007.25 1006.65 1006.34 1005.69 1004.53 1003.85 1003.15 1003.14 1002.75 1001.55 1000.61 1000.54 1000.93 1001.34 1001.85 1002.21 1005.13 1005.99 1005.59 1004.89 1003.83 1002.23 1000.85 999.65 999.14 999.72 1001.07 1001.91 1002.53 1003.18
1013.45 1011.65 1009.06 1007.67 1007.68 1008.94 1010.23 1011.09 1010.96 1010.83 1010.67 1010.52 1009.65 1009.09 1007.89 1007.21 1005.51 1005.35 1004.46 1002.90 1002.59 1002.17 1002.65 1002.39 1001.86 1001.01 1000.77 1000.73 1000.99 1001.41 1002.08 1003.28 1004.23 1004.37 1004.33 1003.28 1001.17 999.63 999.35 998.69 999.31 999.72 1000.33 1001.67 1002.34
1014.54 1011.95 1009.00 1008.31 1008.93 1009.41 1010.18 1010.24 1010.40 1010.33 1010.43 1010.19 1009.60 1008.93 1007.75 1007.06 1005.62 1004.28 1003.31 1001.67 1001.23 1001.35 1001.81 1001.87 1001.79 1001.25 1000.90 1000.63 1000.51 1000.94 1001.78 1002.51 1004.47 1004.75 1004.64 1003.72 1001.93 999.55 998.52 997.86 998.41 999.11 999.71 1000.39 1000.76
1015.84 1012.25 1009.25 1009.43 1010.37 1010.62 1010.20 1009.97 1009.93 1009.97 1010.35 1010.12 1009.76 1008.60 1007.79 1006.54 1005.00 1002.71 1001.45 1000.07 1000.48 1000.95 1001.35 1001.45 1001.71 1002.00 1001.41 1000.96 1000.39 1000.81 1001.31 1001.81 1003.51 1004.88 1004.93 1004.35 1002.22 999.92 998.54 998.65 998.53 999.37 999.94 1000.56 1001.93
1016.31 1013.26 1011.85 1011.29 1011.53 1011.44 1010.86 1010.07 1009.66 1009.65 1009.97 1010.11 1009.69 1008.82 1008.28 1006.61 1004.90 1003.96 1001.80 1000.41 1000.27 1000.75 1001.01 1001.69 1001.90 1001.77 1001.70 1001.09 1000.97 1000.82 1000.77 1001.52 1002.54 1004.47 1005.80 1005.11 1003.33 1001.11 1000.16 1000.05 1000.47 1001.81 1003.06 1003.73 1004.53
1016.63 1015.47 1014.96 1013.58 1012.83 1012.48 1011.46 1010.42 1009.95 1009.69 1009.72 1010.04 1009.66 1009.71 1009.59 1008.18 1006.58 1005.81 1004.62 1002.96 1000.94 1001.01 1001.28 1001.56 1001.95 1001.84 1001.26 1000.70 1000.44 1000.07 999.99 1000.61 1002.26 1004.13 1005.71 1005.07 1004.82 1002.45 1002.50 1001.79 1002.91 1003.60 1003.86 1004.55 1005.65
1018.12 1017.79 1016.60 1015.41 1013.43 1012.34 1011.09 1010.97 1010.38 1009.98 1009.72 1010.07 1010.25 1009.84 1009.73 1009.26 1008.74 1007.60 1007.00 1005.83 1003.81 1002.63 1002.16 1001.97 1002.56 1002.41 1001.52 1000.70 1000.20 999.51 999.60 1000.01 1001.23 1003.40 1005.26 1005.90 1005.02 1004.03 1004.27 1003.64 1004.77 1005.63 1006.17 1007.17 1007.66
1018.97 1018.38 1017.57 1015.54 1014.27 1013.39 1012.42 1011.49 1010.73 1010.30 1010.31 1010.05 1009.94 1009.87 1009.57 1009.45 1009.19 1008.16 1007.13 1006.49 1005.73 1005.15 1004.03 1003.63 1003.53 1003.63 1002.55 1000.93 1000.05 999.23 999.22 999.47 999.97 1002.56 1004.09 1005.53 1005.94 1005.60 1005.66 1005.76 1007.29 1008.09 1007.91 1008.85 1010.06
Wind_Speed
19 19 18 18 18 18 19 19 19 18 17 18 18 17 17 16 17 16 21 15 11 24 13 15 15 12 10 9 9 5 8 13 21 21 18 12 10 11 11 16 7 7 14 11 13
20 20 20 20 20 19 19 19 19 20 20 18 18 16 16 16 16 20 25 22 22 15 12 9 10 12 6 7 7 8 11 26 6 12 13 18 15 15 5 13 18 18 16 22 9
21 21 21 22 22 20 20 20 20 19 19 20 19 17 14 12 14 8 7 7 27 19 11 12 11 10 13 9 10 8 23 8 17 16 15 20 21 8 7 7 19 22 22 26 28
22 23 23 23 22 21 20 20 20 19 18 17 18 18 12 6 9 6 3 2 5 9 16 13 8 5 4 12 13 15 20 19 14 14 21 21 20 12 6 6 18 26 29 28 24
23 24 24 24 24 23 21 21 20 20 17 15 14 16 8 9 14 23 32 22 13 6 16 15 12 8 8 7 11 23 16 14 13 20 21 18 21 17 16 9 21 20 22 25 28
23 23 24 25 25 24 21 20 18 18 18 15 12 13 9 20 14 22 21 20 15 6 11 12 9 9 8 12 13 5 18 15 15 17 19 18 21 11 17 11 12 28 25 25 19
23 23 25 25 25 24 21 19 16 15 15 14 11 8 13 24 10 16 19 16 20 17 13 13 16 11 9 13 12 12 12 10 20 16 15 15 18 20 11 11 7 14 12 12 9
25 24 25 26 25 24 23 19 16 14 12 11 10 7 10 12 14 23 23 25 23 21 20 14 17 14 12 10 13 9 7 10 14 17 17 8 18 22 9 6 10 18 19 13 8
25 25 25 27 26 23 20 17 15 12 9 7 5 6 11 11 11 16 17 19 16 19 13 12 13 11 8 9 6 7 8 15 14 16 10 11 15 21 13 8 6 15 18 27 6
26 26 25 25 25 21 20 16 7 5 8 5 6 5 8 12 13 11 13 15 13 8 5 12 5 5 9 9 14 12 13 9 15 14 17 17 13 17 13 7 7 12 10 12 13
27 26 25 24 22 19 13 2 2 3 4 7 5 7 13 6 13 13 12 11 13 3 1 5 5 13 16 17 9 7 11 11 8 17 11 18 15 12 10 7 15 12 10 6 7
28 27 26 25 21 18 6 4 4 5 8 12 17 17 16 5 6 10 5 8 4 3 6 4 11 8 9 12 16 16 15 13 17 13 10 16 18 13 9 7 5 17 13 11 8
28 27 27 24 25 5 6 5 5 4 3 9 14 10 7 7 2 7 7 6 10 8 11 6 6 14 17 15 18 16 14 15 12 15 16 13 15 11 8 8 22 15 14 14 18
28 26 25 25 6 7 3 6 7 4 2 11 10 6 7 11 4 3 4 2 3 10 11 8 15 16 16 18 14 15 18 18 15 12 10 15 11 14 11 8 21 15 11 14 18
30 27 25 9 7 5 4 6 7 1 5 14 8 4 6 8 2 4 5 5 7 9 6 7 7 10 17 13 14 16 15 15 14 3 5 8 6 13 16 16 7 14 11 9 10
31 28 21 7 5 10 2 5 1 2 5 7 6 10 3 7 2 2 3 5 6 6 11 14 8 7 8 11 13 10 12 5 4 0 2 9 9 14 9 21 6 11 13 12 9
33 33 14 5 5 7 2 3 3 6 11 10 9 13 6 4 3 2 1 4 4 4 6 11 13 7 9 7 11 13 5 4 3 1 4 8 4 11 18 21 13 16 18 15 12
35 31 7 8 8 10 2 2 7 6 3 8 13 17 7 3 4 7 4 7 11 7 6 8 4 12 15 13 5 9 8 7 6 5 7 8 7 11 20 21 18 19 21 18 15
30 4 4 3 12 1 3 4 3 3 7 9 13 3 3 5 4 7 2 4 6 12 4 4 6 12 8 8 7 6 5 12 5 4 0 5 8 12 20 19 11 20 21 22 19
7 4 5 6 2 3 5 3 5 7 7 6 4 5 6 8 7 5 7 7 6 8 5 6 2 4 6 7 10 6 15 13 6 9 6 11 8 15 9 18 11 12 10 16 19
2 4 4 7 4 4 4 4 8 10 6 5 6 5 8 8 11 6 5 6 12 9 8 6 4 4 7 6 8 3 3 3 2 2 3 1 8 7 16 11 12 20 17 20 11
7 4 4 6 5 1 1 2 7 10 6 4 8 11 12 17 13 10 10 12 12 6 7 2 2 5 7 7 8 6 7 7 5 1 2 6 7 9 4 10 10 11 16 15 8
8 5 2 7 4 5 6 4 2 7 5 5 7 8 16 11 8 8 4 5 12 3 3 3 3 2 2 6 6 3 5 6 8 2 2 3 6 6 6 5 8 11 10 16 9
4 5 5 5 5 6 8 9 6 5 3 7 10 10 18 11 11 8 7 4 10 9 5 4 4 6 8 5 4 6 12 7 7 5 2 4 11 3 4 2 11 24 24 22 19
4 4 4 6 8 16 15 7 9 6 3 6 5 13 13 7 13 14 13 18 2 10 6 4 3 5 6 13 15 16 10 7 6 10 3 6 9 5 8 12 18 20 23 25 24
5 5 5 14 12 14 4 8 9 11 4 3 4 11 11 7 7 15 15 9 5 13 8 6 4 6 5 19 19 14 12 10 13 17 17 5 9 3 18 23 22 18 22 22 22
6 5 4 7 10 11 11 17 14 11 1 6 6 7 11 9 12 16 16 16 17 10 7 5 3 6 6 7 5 7 8 7 9 22 22 4 4 6 16 23 18 15 21 22 19
Wind_Direction
344 341 337 333 328 326 323 319 321 315 306 304 306 307 305 303 304 292 267 234 229 241 278 252 277 286 285 234 248 257 232 237 233 225 237 276 276 270 246 98 45 34 116 155 321
340 336 333 330 324 324 322 319 315 314 316 307 301 301 310 311 302 283 253 246 240 244 247 251 240 247 241 215 223 194 218 233 258 250 248 269 260 276 13 94 98 106 113 106 294
337 333 330 327 324 321 319 317 315 313 311 311 317 304 305 323 301 246 75 81 223 231 231 265 279 273 230 234 213 245 236 255 241 260 268 273 284 307 304 136 153 159 167 166 165
335 333 329 324 318 314 308 306 305 305 305 308 309 313 300 310 264 129 80 33 157 201 212 230 248 266 261 228 225 233 244 247 260 244 265 271 280 284 282 268 150 165 178 174 183
333 329 324 319 316 313 307 303 303 301 297 296 297 298 299 236 248 292 313 303 310 176 207 211 222 225 235 229 227 233 247 252 250 262 272 285 273 276 281 227 141 154 174 188 185
332 328 324 319 314 311 306 302 296 293 295 286 288 298 281 264 252 268 279 291 282 222 201 207 223 221 280 252 245 265 231 255 251 252 255 266 277 288 272 262 226 150 177 183 205
331 327 323 321 317 313 307 300 294 286 286 290 287 288 274 251 277 282 294 304 301 293 203 218 231 233 207 278 267 260 280 252 245 247 253 251 278 267 284 221 110 105 148 200 180
331 328 326 324 319 315 310 308 301 291 282 279 281 281 257 264 249 253 261 276 275 276 267 208 212 233 254 285 286 275 255 255 246 238 245 192 256 267 267 208 147 149 123 289 256
334 332 328 326 322 323 316 300 291 280 267 261 243 211 267 270 268 239 243 262 266 277 249 221 234 238 245 243 287 248 242 237 249 222 222 208 240 258 266 236 164 151 172 171 195
335 333 329 326 324 324 322 299 285 289 219 197 252 285 235 314 338 293 241 237 262 301 249 217 214 208 239 203 212 210 222 242 237 242 217 231 228 243 254 248 190 154 161 158 180
335 332 331 327 322 325 335 9 174 175 232 217 218 243 290 320 43 317 234 198 243 328 272 214 196 209 220 223 247 255 254 231 253 240 194 231 247 231 223 233 252 165 146 91 102
334 332 331 325 317 319 303 332 82 259 300 277 237 265 244 100 14 321 310 184 142 199 256 290 233 231 232 226 237 245 244 244 245 244 201 221 248 241 207 227 193 134 141 133 106
333 332 330 326 311 302 242 53 22 359 280 314 313 306 262 145 161 307 339 205 161 223 254 226 239 229 232 220 225 239 245 248 226 241 229 212 250 231 236 213 99 106 121 115 123
332 331 328 331 315 320 27 68 47 32 278 1 339 4 80 137 62 8 339 305 151 221 234 235 251 217 234 221 213 229 236 244 262 220 218 203 237 232 236 255 125 145 144 153 148
330 330 327 314 298 296 98 92 86 25 48 330 312 286 20 62 89 34 322 302 187 185 204 227 240 254 227 223 222 238 245 240 255 248 260 226 218 222 234 238 154 138 161 154 155
328 326 331 312 196 251 76 86 47 350 9 331 305 327 9 41 43 289 9 253 260 227 234 274 264 219 253 237 239 268 247 305 265 98 311 253 212 236 233 235 139 134 158 166 159
329 319 315 276 252 331 94 59 9 47 343 315 335 333 3 330 100 190 219 220 209 137 218 248 242 243 225 244 261 251 68 16 314 117 203 308 3 242 223 253 161 161 164 161 160
329 313 230 214 241 270 329 314 34 347 337 296 320 323 276 231 114 172 230 264 232 282 270 220 178 189 206 227 230 213 132 137 184 169 229 242 204 244 239 246 160 170 163 155 171
324 306 268 243 225 316 332 35 322 302 293 313 322 303 224 204 238 193 198 267 276 191 247 290 200 172 193 193 185 185 146 178 249 95 134 191 246 299 282 256 202 169 165 166 179
317 285 276 280 225 10 53 312 347 211 321 309 280 293 330 189 188 210 193 235 253 220 188 295 326 198 214 182 244 223 194 191 213 173 177 208 214 222 217 222 183 149 173 180 185
251 303 290 333 66 63 95 347 311 359 346 315 295 293 293 294 182 182 258 248 199 177 194 242 242 205 178 196 239 276 182 82 210 181 71 184 230 240 228 184 162 151 181 178 149
327 317 308 5 30 52 83 256 6 344 352 289 280 264 274 319 279 201 218 234 190 192 199 285 304 166 217 194 227 249 290 120 127 353 236 161 277 284 291 163 134 133 122 133 109
308 269 316 42 21 357 318 340 89 22 334 352 304 310 318 307 312 194 247 204 178 130 174 323 294 128 262 301 305 275 268 139 111 78 27 66 274 325 129 160 123 138 132 127 127
299 332 335 337 354 344 319 299 352 63 16 336 293 332 343 322 334 347 292 183 141 169 191 99 246 166 192 215 212 252 256 166 109 86 48 256 295 84 173 205 77 68 77 76 80
345 342 33 310 322 309 299 311 344 359 152 41 329 1 340 312 334 2 351 329 126 160 202 159 275 352 211 192 213 237 232 208 127 120 69 292 297 295 356 81 89 86 83 73 68
3 346 339 293 293 298 310 357 328 335 2 7 305 326 319 304 9 311 318 330 311 331 312 21 314 0 288 203 218 221 226 241 162 146 203 295 263 38 66 67 68 82 80 76 79
3 323 262 285 308 333 346 328 341 347 44 201 342 326 309 335 315 282 276 270 266 289 293 359 92 19 293 319 306 211 207 237 163 171 147 98 254 87 67 72 59 60 88 94 92